Weather History for Oxford, NC

Change the Weather History Date:

Saturday, February 16, 2013

  Actual Average (KTDF) Record (KTDF)
Temperature  
Mean Temperature 36 °F -  
Max Temperature 41 °F 54 °F 80 °F (1989)
Min Temperature 29 °F 30 °F 11 °F (1963)
Degree Days  
Heating Degree Days 29    
Moisture  
Dew Point 32 °F    
Average Humidity 88    
Maximum Humidity 98    
Minimum Humidity 59    
Precipitation  
Precipitation 0.17 in - - ()
Sea Level Pressure  
Sea Level Pressure 29.90 in    
Wind  
Wind Speed 4 mph (NNW)    
Max Wind Speed 8 mph    
Max Gust Speed -    
Visibility 5 miles    
Events Rain , Snow    
Averages and records for this station are not official NWS values.
T = Trace of Precipitation, MM = Missing Value Source: NWS Daily Summary

Daily Weather History Graph

Daily Weather History Graph

Search for Another Location

Airport:

Trip Planner

Search our weather history database for the weather conditions in past years. The results will help you decide how hot, cold, wet, or windy it might be!

Date:

Astronomy

Feb. 16, 2013 Rise Set
Actual Time 7:00 AM EST 5:56 PM EST
Civil Twilight 6:34 AM EST 6:22 PM EST
Nautical Twilight 6:04 AM EST 6:52 PM EST
Astronomical Twilight 5:34 AM EST 7:22 PM EST
Moon 10:24 AM EST (2/16) No Moon Set
Length of Visible Light 11h 48m
Length of Day
10h 55m
Waxing Crescent, 39% of the Moon is Illuminated
Feb 16
Waxing Crescent
Feb 17
First Quarter
Feb 25
Full
Mar 4
Last Quarter
Mar 11
New

Hourly Weather History & Observations

Time (EST) Temp. Windchill Dew Point Humidity Pressure Visibility Wind Dir Wind Speed Gust Speed Precip Events Conditions
12:15 AM 43.5 °F 39.4 °F 29.8 °F 59% 29.97 in 10.0 mi NW 6.9 mph - N/A   Clear
12:35 AM 42.4 °F 38.8 °F 29.7 °F 61% 29.98 in 10.0 mi NNW 5.8 mph - N/A   Clear
12:55 AM 41.7 °F 38.8 °F 29.8 °F 63% 29.97 in 10.0 mi NNW 4.6 mph - N/A   Scattered Clouds
1:15 AM 41.2 °F 39.2 °F 30.0 °F 65% 29.97 in 10.0 mi North 3.5 mph - N/A   Mostly Cloudy
1:35 AM 41.2 °F 38.2 °F 30.2 °F 65% 29.96 in 10.0 mi NNW 4.6 mph - N/A   Mostly Cloudy
1:55 AM 41.4 °F 38.4 °F 30.4 °F 65% 29.96 in 10.0 mi NNW 4.6 mph - N/A   Overcast
2:15 AM 41.4 °F 38.4 °F 30.9 °F 66% 29.95 in 10.0 mi North 4.6 mph - N/A   Overcast
2:35 AM 41.0 °F 39.0 °F 30.7 °F 67% 29.95 in 10.0 mi North 3.5 mph - N/A   Overcast
2:55 AM 41.0 °F 38.0 °F 31.1 °F 68% 29.95 in 10.0 mi NW 4.6 mph - N/A   Overcast
3:15 AM 41.5 °F 38.6 °F 31.5 °F 67% 29.94 in 10.0 mi NW 4.6 mph - N/A   Overcast
3:35 AM 41.5 °F 38.6 °F 31.6 °F 68% 29.94 in 10.0 mi NNW 4.6 mph - N/A   Overcast
3:55 AM 40.5 °F 38.4 °F 31.8 °F 71% 29.95 in 10.0 mi NNE 3.5 mph - N/A   Overcast
4:15 AM 41.0 °F 39.0 °F 32.0 °F 70% 29.94 in 10.0 mi NE 3.5 mph - N/A   Overcast
4:35 AM 40.6 °F 37.5 °F 33.1 °F 74% 29.94 in 10.0 mi NNE 4.6 mph - N/A   Overcast
4:55 AM 40.6 °F 38.6 °F 33.6 °F 76% 29.95 in 10.0 mi NNW 3.5 mph - N/A   Overcast
5:15 AM 40.5 °F 38.4 °F 33.4 °F 76% 29.94 in 10.0 mi North 3.5 mph - N/A   Light Drizzle
5:35 AM 40.1 °F 38.0 °F 33.8 °F 78% 29.94 in 10.0 mi NNE 3.5 mph - N/A   Light Drizzle
5:55 AM 40.1 °F 38.0 °F 34.3 °F 80% 29.93 in 10.0 mi North 3.5 mph - N/A   Overcast
6:15 AM 40.1 °F 36.9 °F 34.7 °F 81% 29.94 in 10.0 mi North 4.6 mph - N/A   Overcast
6:35 AM 39.2 °F 34.2 °F 34.5 °F 83% 29.93 in 10.0 mi NNW 6.9 mph - N/A   Drizzle
6:55 AM 38.1 °F 33.7 °F 35.6 °F 91% 29.94 in 7.0 mi NW 5.8 mph - N/A Rain Rain
7:15 AM 37.0 °F 31.6 °F 35.1 °F 93% 29.93 in 10.0 mi NNW 6.9 mph - N/A Rain Rain
7:35 AM 36.5 °F 30.3 °F 34.7 °F 93% 29.94 in 7.0 mi NNW 8.1 mph - 0.01 in   Drizzle
7:55 AM 36.0 °F 29.6 °F 34.5 °F 94% 29.94 in 7.0 mi NNW 8.1 mph - 0.01 in   Drizzle
8:15 AM 35.6 °F 29.2 °F 34.2 °F 94% 29.94 in 5.0 mi NNW 8.1 mph - N/A Rain Rain
8:35 AM 34.0 °F 29.8 °F 32.7 °F 95% 29.94 in 1.8 mi NNW 4.6 mph - 0.02 in Snow Light Snow
8:55 AM 33.4 °F 29.1 °F 32.2 °F 95% 29.95 in 2.0 mi NNW 4.6 mph - 0.03 in Snow Light Snow
9:15 AM 32.9 °F 29.8 °F 32.0 °F 96% 29.95 in 1.0 mi NNW 3.5 mph - N/A Snow Light Snow
9:35 AM 32.5 °F 29.3 °F 32.0 °F 98% 29.94 in 0.5 mi North 3.5 mph - 0.02 in Snow Snow
9:55 AM 32.5 °F - 32.0 °F 98% 29.94 in 0.8 mi Calm Calm - 0.04 in Snow Light Snow
10:15 AM 32.5 °F - 32.0 °F 98% 29.93 in 0.5 mi Calm Calm - N/A Snow Light Snow
10:35 AM 32.5 °F 29.3 °F 32.0 °F 98% 29.93 in 0.8 mi NNW 3.5 mph - 0.03 in Snow Light Snow
1:15 PM 32.9 °F 29.8 °F 32.0 °F 96% 29.87 in 2.0 mi NNE 3.5 mph - 0.01 in Snow Light Snow
1:35 PM 33.3 °F 28.9 °F 32.2 °F 96% 29.86 in 2.0 mi North 4.6 mph - 0.01 in Rain Light Rain
1:55 PM 32.9 °F 27.5 °F 32.0 °F 96% 29.86 in 1.2 mi North 5.8 mph - 0.01 in Snow Light Snow
2:15 PM 33.1 °F 28.7 °F 32.0 °F 96% 29.85 in 2.5 mi North 4.6 mph - N/A   Overcast
2:35 PM 32.9 °F 29.8 °F 32.0 °F 96% 29.85 in 1.2 mi North 3.5 mph - 0.01 in Snow Light Snow
2:55 PM 32.7 °F - 32.0 °F 97% 29.85 in 0.8 mi Calm Calm - 0.01 in Snow Light Snow
3:15 PM 32.7 °F 28.3 °F 32.0 °F 97% 29.85 in 2.0 mi North 4.6 mph - N/A Snow Light Snow
3:35 PM 32.5 °F 26.2 °F 32.0 °F 98% 29.84 in 1.2 mi North 6.9 mph - N/A Snow Light Snow
3:55 PM 32.4 °F 26.9 °F 31.6 °F 97% 29.84 in 1.0 mi NW 5.8 mph - N/A Snow Light Snow
4:15 PM 32.2 °F 25.8 °F 31.6 °F 98% 29.83 in 1.8 mi NNW 6.9 mph - N/A Snow Light Snow
4:35 PM 32.4 °F 27.9 °F 31.6 °F 97% 29.84 in 2.0 mi NNW 4.6 mph - N/A Snow Light Snow
4:55 PM 32.4 °F 26.9 °F 31.6 °F 97% 29.83 in 1.8 mi NNW 5.8 mph - N/A Snow Light Snow
5:15 PM 32.2 °F 27.7 °F 31.6 °F 98% 29.84 in 1.2 mi NW 4.6 mph - N/A Snow Light Snow
5:35 PM 32.2 °F - 31.5 °F 97% 29.84 in 1.2 mi Calm Calm - N/A Snow Light Snow
5:55 PM 32.2 °F - 31.6 °F 98% 29.83 in 1.8 mi Calm Calm - N/A Snow Light Snow
6:15 PM 32.0 °F - 31.5 °F 98% 29.84 in 1.5 mi Calm Calm - N/A Snow Light Snow
6:35 PM 32.0 °F - 31.5 °F 98% 29.84 in 1.8 mi Calm Calm - N/A Snow Light Snow
6:55 PM 32.0 °F - 31.5 °F 98% 29.84 in 1.5 mi Calm Calm - N/A Snow Light Snow
7:15 PM 32.0 °F - 31.5 °F 98% 29.85 in 1.8 mi Calm Calm - N/A Snow Light Snow
7:35 PM 32.0 °F - 31.1 °F 96% 29.85 in 1.5 mi Calm Calm - 0.01 in Snow Light Snow
7:55 PM 32.0 °F - 30.7 °F 95% 29.85 in 3.0 mi Calm Calm - 0.01 in Snow Light Snow
8:15 PM 32.0 °F - 30.7 °F 95% 29.85 in 7.0 mi Calm Calm - N/A Snow Light Snow
8:35 PM 32.0 °F - 30.7 °F 95% 29.85 in 2.5 mi Calm Calm - N/A Snow Light Snow
8:55 PM 32.0 °F - 30.7 °F 95% 29.86 in 1.8 mi Calm Calm - N/A Snow Light Snow
9:15 PM 32.0 °F - 30.7 °F 95% 29.86 in 1.0 mi Calm Calm - N/A Snow Snow
9:35 PM 31.5 °F - 30.2 °F 95% 29.87 in 0.8 mi Calm Calm - 0.01 in Snow Snow
9:55 PM 31.6 °F - 30.2 °F 94% 29.87 in 1.0 mi Calm Calm - 0.01 in Snow Snow
10:15 PM 31.3 °F - 30.2 °F 96% 29.88 in 0.8 mi Calm Calm - 0.01 in Snow Snow
10:35 PM 30.2 °F - 29.1 °F 96% 29.89 in 0.8 mi Calm Calm - 0.02 in Snow Snow
10:55 PM 30.0 °F - 28.4 °F 94% 29.88 in 2.0 mi Calm Calm - 0.02 in Snow Light Snow
11:15 PM 30.7 °F - 25.7 °F 82% 29.88 in 10.0 mi Calm Calm - N/A   Overcast
11:35 PM 29.8 °F - 26.4 °F 87% 29.88 in 10.0 mi Calm Calm - N/A   Overcast
11:55 PM 29.3 °F - 26.6 °F 90% 29.89 in 10.0 mi Calm Calm - N/A   Overcast